When you browse on this site, cookies collect data to enhance your experience and personalize the content and advertising you see.
Visit our Privacy Policy to learn more. By continuing to use the site, you agree to this use of cookies and data.
  • In Hungary
  • List of Countries
  • For 7 days
  • Water Temperature
  • Satellite Maps
  • Weather Map
  • News
  • Weather Widgets
  • user-avatar
    Login

    Hourly Weather Posukhiv

    Today, 24 July, Wednesday

    Time Temperature Precipitation Wind Pressure Humidity
    00:00 +14°C° 0 mm 3 mps 736 mmHg 90%
    01:00 +14°C° 0 mm 3 mps 736 mmHg 91%
    02:00 +13°C° 0 mm 3 mps 736 mmHg 93%
    03:00 +13°C° 0 mm 3 mps 736 mmHg 93%
    04:00 +13°C° 0 mm 3 mps 736 mmHg 93%
    05:00 +13°C° 0 mm 4 mps 736 mmHg 92%
    06:00 +15°C° 0 mm 4 mps 736 mmHg 87%
    07:00 +17°C° 0 mm 5 mps 736 mmHg 82%
    08:00 +19°C° 0 mm 5 mps 736 mmHg 76%
    09:00 +20°C° 0.2 mm 6 mps 736 mmHg 73%
    10:00 +21°C° 0.2 mm 6 mps 736 mmHg 70%
    11:00 +22°C° 0.2 mm 6 mps 736 mmHg 67%
    12:00 +23°C° 0.7 mm 6 mps 736 mmHg 67%
    13:00 +23°C° 0.7 mm 6 mps 736 mmHg 67%
    14:00 +23°C° 0.7 mm 6 mps 736 mmHg 67%
    15:00 +23°C° 0.3 mm 5 mps 736 mmHg 67%
    16:00 +23°C° 0.3 mm 5 mps 736 mmHg 68%
    17:00 +23°C° 0.3 mm 5 mps 736 mmHg 68%
    18:00 +22°C° 0.1 mm 4 mps 736 mmHg 75%
    19:00 +20°C° 0.1 mm 4 mps 736 mmHg 82%
    20:00 +19°C° 0.1 mm 3 mps 736 mmHg 88%
    21:00 +18°C° 0 mm 3 mps 736 mmHg 90%
    22:00 +17°C° 0 mm 3 mps 736 mmHg 92%
    23:00 +17°C° 0 mm 3 mps 737 mmHg 93%

    Tomorrow, 25 July, Thursday

    Time Temperature Precipitation Wind Pressure Humidity
    00:00 +17°C° 0 mm 3 mps 737 mmHg 93%
    01:00 +16°C° 0 mm 3 mps 736 mmHg 94%
    02:00 +16°C° 0 mm 2 mps 736 mmHg 94%
    03:00 +16°C° 0 mm 2 mps 737 mmHg 94%
    04:00 +15°C° 0 mm 2 mps 737 mmHg 94%
    05:00 +15°C° 0 mm 2 mps 737 mmHg 94%
    06:00 +17°C° 0 mm 3 mps 737 mmHg 89%
    07:00 +18°C° 0 mm 3 mps 737 mmHg 83%
    08:00 +20°C° 0 mm 3 mps 737 mmHg 78%
    09:00 +21°C° 0 mm 3 mps 737 mmHg 71%
    10:00 +24°C° 0 mm 3 mps 738 mmHg 64%
    11:00 +25°C° 0 mm 3 mps 738 mmHg 57%
    12:00 +26°C° 0.2 mm 4 mps 737 mmHg 56%
    13:00 +26°C° 0.2 mm 4 mps 737 mmHg 54%
    14:00 +27°C° 0.2 mm 4 mps 737 mmHg 53%
    15:00 +26°C° 0 mm 3 mps 737 mmHg 53%
    16:00 +26°C° 0 mm 3 mps 736 mmHg 53%
    17:00 +26°C° 0 mm 3 mps 736 mmHg 54%
    18:00 +24°C° 0 mm 2 mps 736 mmHg 59%
    19:00 +23°C° 0 mm 2 mps 736 mmHg 64%
    20:00 +21°C° 0 mm 1 mps 736 mmHg 69%
    21:00 +20°C° 0.1 mm 1 mps 736 mmHg 73%
    22:00 +20°C° 0.1 mm 1 mps 736 mmHg 76%
    23:00 +17°C° 0.1 mm 0 mps 736 mmHg 79%

    Day after tomorrow, 26 July, Friday

    Time Temperature Precipitation Wind Pressure Humidity
    00:00 +19°C° 0.1 mm 1 mps 735 mmHg 83%
    01:00 +18°C° 0.1 mm 1 mps 735 mmHg 86%
    02:00 +16°C° 0.1 mm 2 mps 735 mmHg 89%
    03:00 +16°C° 0 mm 2 mps 735 mmHg 91%
    04:00 +16°C° 0 mm 2 mps 734 mmHg 92%
    05:00 +16°C° 0 mm 2 mps 734 mmHg 94%
    06:00 +17°C° 0 mm 2 mps 734 mmHg 88%
    07:00 +19°C° 0 mm 2 mps 734 mmHg 83%
    08:00 +21°C° 0 mm 3 mps 734 mmHg 77%
    09:00 +22°C° 0.3 mm 3 mps 734 mmHg 71%
    10:00 +24°C° 0.3 mm 3 mps 734 mmHg 65%
    11:00 +25°C° 0.3 mm 3 mps 734 mmHg 59%
    12:00 +26°C° 0 mm 3 mps 733 mmHg 56%
    13:00 +26°C° 0 mm 3 mps 733 mmHg 53%
    14:00 +27°C° 0 mm 2 mps 733 mmHg 51%
    15:00 +26°C° 0.4 mm 3 mps 733 mmHg 54%
    16:00 +26°C° 0.4 mm 3 mps 733 mmHg 57%
    17:00 +25°C° 0.4 mm 3 mps 732 mmHg 60%
    18:00 +24°C° 0.2 mm 3 mps 732 mmHg 67%
    19:00 +21°C° 0.2 mm 2 mps 732 mmHg 74%
    20:00 +19°C° 0.2 mm 2 mps 732 mmHg 81%
    21:00 +19°C° 0.1 mm 2 mps 732 mmHg 84%
    22:00 +18°C° 0.1 mm 2 mps 732 mmHg 87%
    23:00 +17°C° 0.1 mm 2 mps 732 mmHg 89%

    27 July, Saturday

    Time Temperature Precipitation Wind Pressure Humidity
    00:00 +17°C° 0 mm 2 mps 732 mmHg 90%
    01:00 +16°C° 0 mm 1 mps 731 mmHg 90%
    02:00 +16°C° 0 mm 1 mps 731 mmHg 91%
    03:00 +16°C° 0 mm 1 mps 731 mmHg 91%
    04:00 +15°C° 0 mm 1 mps 731 mmHg 91%
    05:00 +15°C° 0 mm 2 mps 731 mmHg 91%
    06:00 +17°C° 0 mm 2 mps 731 mmHg 87%
    07:00 +18°C° 0 mm 2 mps 731 mmHg 82%
    08:00 +19°C° 0 mm 2 mps 731 mmHg 77%
    09:00 +21°C° 0 mm 3 mps 731 mmHg 72%
    10:00 +22°C° 0 mm 3 mps 731 mmHg 67%
    11:00 +24°C° 0 mm 3 mps 731 mmHg 62%
    12:00 +25°C° 0.1 mm 3 mps 731 mmHg 60%
    13:00 +25°C° 0.1 mm 3 mps 731 mmHg 58%
    14:00 +26°C° 0.1 mm 3 mps 730 mmHg 57%
    15:00 +25°C° 0.3 mm 3 mps 730 mmHg 61%
    16:00 +24°C° 0.3 mm 3 mps 730 mmHg 64%
    17:00 +24°C° 0.3 mm 3 mps 730 mmHg 68%
    18:00 +22°C° 0.2 mm 3 mps 730 mmHg 75%
    19:00 +20°C° 0.2 mm 2 mps 730 mmHg 81%
    20:00 +19°C° 0.2 mm 2 mps 729 mmHg 88%
    21:00 +18°C° 0 mm 2 mps 729 mmHg 90%
    22:00 +17°C° 0 mm 2 mps 730 mmHg 92%
    23:00 +17°C° 0 mm 2 mps 730 mmHg 93%

    28 July, Sunday

    Time Temperature Precipitation Wind Pressure Humidity
    00:00 +16°C° 0 mm 2 mps 730 mmHg 94%
    01:00 +16°C° 0 mm 2 mps 729 mmHg 94%
    02:00 +16°C° 0 mm 2 mps 729 mmHg 94%
    03:00 +16°C° 0 mm 2 mps 729 mmHg 95%
    04:00 +16°C° 0 mm 2 mps 729 mmHg 95%
    05:00 +16°C° 0 mm 2 mps 729 mmHg 96%
    06:00 +17°C° 0 mm 2 mps 730 mmHg 90%
    07:00 +19°C° 0 mm 3 mps 730 mmHg 85%
    08:00 +20°C° 0 mm 3 mps 730 mmHg 80%
    09:00 +22°C° 0 mm 3 mps 730 mmHg 73%
    10:00 +24°C° 0 mm 3 mps 730 mmHg 66%
    11:00 +26°C° 0 mm 3 mps 730 mmHg 59%
    12:00 +26°C° 0.1 mm 3 mps 730 mmHg 58%
    13:00 +26°C° 0.1 mm 3 mps 730 mmHg 57%
    14:00 +27°C° 0.1 mm 4 mps 729 mmHg 56%
    15:00 +27°C° 0.1 mm 4 mps 729 mmHg 58%
    16:00 +26°C° 0.1 mm 4 mps 729 mmHg 60%
    17:00 +26°C° 0.1 mm 3 mps 729 mmHg 61%
    18:00 +25°C° 0.1 mm 3 mps 729 mmHg 69%
    19:00 +22°C° 0.1 mm 3 mps 729 mmHg 76%
    20:00 +20°C° 0.1 mm 3 mps 729 mmHg 84%
    21:00 +20°C° 0.1 mm 3 mps 729 mmHg 86%
    22:00 +19°C° 0.1 mm 2 mps 729 mmHg 89%
    23:00 +18°C° 0.1 mm 2 mps 729 mmHg 91%

    29 July, Monday

    Time Temperature Precipitation Wind Pressure Humidity
    00:00 +18°C° 0 mm 2 mps 730 mmHg 92%
    01:00 +18°C° 0 mm 2 mps 730 mmHg 93%
    02:00 +18°C° 0 mm 2 mps 730 mmHg 94%
    03:00 +18°C° 0 mm 3 mps 730 mmHg 95%
    04:00 +17°C° 0 mm 3 mps 730 mmHg 96%
    05:00 +17°C° 0 mm 3 mps 730 mmHg 97%
    06:00 +18°C° 0 mm 4 mps 730 mmHg 94%
    07:00 +18°C° 0 mm 4 mps 730 mmHg 92%
    08:00 +19°C° 0 mm 5 mps 731 mmHg 89%
    09:00 +19°C° 0 mm 5 mps 731 mmHg 84%
    10:00 +20°C° 0 mm 5 mps 731 mmHg 79%
    11:00 +20°C° 0 mm 5 mps 731 mmHg 73%
    12:00 +21°C° 0 mm 5 mps 732 mmHg 69%
    13:00 +22°C° 0 mm 5 mps 732 mmHg 64%
    14:00 +23°C° 0 mm 5 mps 732 mmHg 59%
    15:00 +22°C° 0 mm 5 mps 732 mmHg 59%
    16:00 +22°C° 0 mm 5 mps 732 mmHg 59%
    17:00 +22°C° 0 mm 5 mps 733 mmHg 59%
    18:00 +20°C° 0 mm 4 mps 733 mmHg 63%
    19:00 +19°C° 0 mm 4 mps 733 mmHg 67%
    20:00 +17°C° 0 mm 3 mps 733 mmHg 71%
    21:00 +16°C° 0 mm 3 mps 734 mmHg 73%
    22:00 +14°C° 0 mm 3 mps 734 mmHg 75%
    23:00 +13°C° 0 mm 3 mps 735 mmHg 77%
    Show more